Time,TemperatureF,DewpointF,PressureIn,WindDirection,WindDirectionDegrees,WindSpeedMPH,WindSpeedGustMPH,Humidity,HourlyPrecipIn,Conditions,Clouds,dailyrainin,SoftwareType,DateUTC
2013-03-06 00:01:00,41.4,15.2,30.34,ENE,75,0.0,0.0,34,0.00,,,0.00,WeatherTracker,2013-03-06 06:01:00,
2013-03-06 00:06:00,41.2,15.0,30.35,ENE,75,0.0,0.0,34,0.00,,,0.00,WeatherTracker,2013-03-06 06:06:00,
2013-03-06 00:11:00,41.0,14.8,30.35,ENE,75,0.0,1.0,34,0.00,,,0.00,WeatherTracker,2013-03-06 06:11:00,
2013-03-06 00:16:00,41.1,14.9,30.35,ENE,75,0.0,1.0,34,0.00,,,0.00,WeatherTracker,2013-03-06 06:16:00,
2013-03-06 00:21:00,41.2,15.0,30.35,ENE,78,0.0,1.0,34,0.00,,,0.00,WeatherTracker,2013-03-06 06:21:00,
2013-03-06 00:26:00,41.2,15.0,30.35,ENE,77,0.0,1.0,34,0.00,,,0.00,WeatherTracker,2013-03-06 06:26:00,
2013-03-06 00:31:00,40.9,14.7,30.35,ENE,76,0.0,1.0,34,0.00,,,0.00,WeatherTracker,2013-03-06 06:31:00,
2013-03-06 00:36:00,40.8,15.3,30.35,ENE,75,0.0,0.0,35,0.00,,,0.00,WeatherTracker,2013-03-06 06:36:00,
2013-03-06 00:41:00,40.7,15.2,30.36,ENE,73,0.0,0.0,35,0.00,,,0.00,WeatherTracker,2013-03-06 06:41:00,
2013-03-06 00:46:00,40.4,14.9,30.35,ENE,73,0.0,0.0,35,0.00,,,0.00,WeatherTracker,2013-03-06 06:46:00,
2013-03-06 00:51:00,40.1,15.9,30.36,ENE,72,0.0,1.0,37,0.00,,,0.00,WeatherTracker,2013-03-06 06:51:00,
2013-03-06 00:56:00,40.0,15.9,30.36,ENE,68,0.0,1.0,37,0.00,,,0.00,WeatherTracker,2013-03-06 06:56:00,
2013-03-06 01:01:00,39.6,16.1,30.36,ENE,66,0.0,1.0,38,0.00,,,0.00,WeatherTracker,2013-03-06 07:01:00,
2013-03-06 01:06:00,39.2,17.5,30.35,ENE,64,0.0,1.0,41,0.00,,,0.00,WeatherTracker,2013-03-06 07:06:00,
2013-03-06 01:11:00,38.8,17.1,30.35,ENE,63,0.0,1.0,41,0.00,,,0.00,WeatherTracker,2013-03-06 07:11:00,
2013-03-06 01:16:00,38.4,16.8,30.35,ENE,72,0.0,1.0,41,0.00,,,0.00,WeatherTracker,2013-03-06 07:16:00,
2013-03-06 01:21:00,37.9,16.9,30.35,ENE,63,1.0,1.0,42,0.00,,,0.00,WeatherTracker,2013-03-06 07:21:00,
2013-03-06 01:26:00,37.5,17.1,30.35,ENE,72,0.0,1.0,43,0.00,,,0.00,WeatherTracker,2013-03-06 07:26:00,
2013-03-06 01:31:00,37.2,16.8,30.35,ENE,72,0.0,1.0,43,0.00,,,0.00,WeatherTracker,2013-03-06 07:31:00,
2013-03-06 01:36:00,36.9,16.0,30.35,ENE,75,0.0,1.0,42,0.00,,,0.00,WeatherTracker,2013-03-06 07:36:00,
2013-03-06 01:41:00,36.8,16.4,30.35,ENE,73,0.0,0.0,43,0.00,,,0.00,WeatherTracker,2013-03-06 07:41:00,
2013-03-06 01:46:00,36.6,16.2,30.35,ENE,71,0.0,0.0,43,0.00,,,0.00,WeatherTracker,2013-03-06 07:46:00,
2013-03-06 01:51:00,36.5,15.6,30.35,ENE,71,0.0,0.0,42,0.00,,,0.00,WeatherTracker,2013-03-06 07:51:00,
2013-03-06 01:56:00,36.6,15.7,30.34,ENE,73,0.0,0.0,42,0.00,,,0.00,WeatherTracker,2013-03-06 07:56:00,
2013-03-06 02:02:00,36.7,15.8,30.35,ENE,72,0.0,1.0,42,0.00,,,0.00,WeatherTracker,2013-03-06 08:02:00,
2013-03-06 02:07:00,36.6,15.2,30.35,ENE,68,0.0,1.0,41,0.00,,,0.00,WeatherTracker,2013-03-06 08:07:00,
2013-03-06 02:12:00,36.9,15.4,30.35,ENE,73,0.0,1.0,41,0.00,,,0.00,WeatherTracker,2013-03-06 08:12:00,
2013-03-06 02:17:00,36.9,15.4,30.35,ENE,71,0.0,1.0,41,0.00,,,0.00,WeatherTracker,2013-03-06 08:17:00,
2013-03-06 02:22:00,36.9,15.4,30.35,ENE,71,0.0,1.0,41,0.00,,,0.00,WeatherTracker,2013-03-06 08:22:00,
2013-03-06 02:27:00,36.9,15.4,30.35,ENE,71,0.0,1.0,41,0.00,,,0.00,WeatherTracker,2013-03-06 08:27:00,
2013-03-06 02:32:00,36.9,15.4,30.35,ENE,75,0.0,1.0,41,0.00,,,0.00,WeatherTracker,2013-03-06 08:32:00,
2013-03-06 02:37:00,36.9,15.4,30.34,East,82,0.0,1.0,41,0.00,,,0.00,WeatherTracker,2013-03-06 08:37:00,
2013-03-06 02:42:00,36.8,15.3,30.34,ENE,64,0.0,1.0,41,0.00,,,0.00,WeatherTracker,2013-03-06 08:42:00,
2013-03-06 02:47:00,36.8,15.3,30.34,ENE,77,0.0,2.0,41,0.00,,,0.00,WeatherTracker,2013-03-06 08:47:00,
2013-03-06 02:52:00,36.8,15.3,30.34,ENE,67,0.0,2.0,41,0.00,,,0.00,WeatherTracker,2013-03-06 08:52:00,
2013-03-06 02:57:00,36.8,15.3,30.34,ENE,69,0.0,2.0,41,0.00,,,0.00,WeatherTracker,2013-03-06 08:57:00,
2013-03-06 03:02:00,36.8,15.3,30.34,ENE,64,0.0,1.0,41,0.00,,,0.00,WeatherTracker,2013-03-06 09:02:00,
2013-03-06 03:07:00,36.9,15.4,30.34,ENE,64,0.0,2.0,41,0.00,,,0.00,WeatherTracker,2013-03-06 09:07:00,
2013-03-06 03:12:00,37.0,15.5,30.34,NE,56,1.0,2.0,41,0.00,,,0.00,WeatherTracker,2013-03-06 09:12:00,
2013-03-06 03:17:00,37.1,15.6,30.34,ENE,65,0.0,2.0,41,0.00,,,0.00,WeatherTracker,2013-03-06 09:17:00,
2013-03-06 03:22:00,37.1,15.6,30.33,NE,39,0.0,2.0,41,0.00,,,0.00,WeatherTracker,2013-03-06 09:22:00,
2013-03-06 03:27:00,37.2,15.7,30.33,ENE,71,0.0,2.0,41,0.00,,,0.00,WeatherTracker,2013-03-06 09:27:00,
2013-03-06 03:32:00,37.3,15.8,30.34,NE,52,0.0,2.0,41,0.00,,,0.00,WeatherTracker,2013-03-06 09:32:00,
2013-03-06 03:37:00,37.2,15.7,30.34,NE,56,0.0,1.0,41,0.00,,,0.00,WeatherTracker,2013-03-06 09:37:00,
2013-03-06 03:42:00,37.2,15.7,30.34,NE,44,0.0,1.0,41,0.00,,,0.00,WeatherTracker,2013-03-06 09:42:00,
2013-03-06 03:47:00,37.3,15.8,30.34,East,84,0.0,1.0,41,0.00,,,0.00,WeatherTracker,2013-03-06 09:47:00,
2013-03-06 03:52:00,37.3,15.8,30.34,ENE,70,0.0,1.0,41,0.00,,,0.00,WeatherTracker,2013-03-06 09:52:00,
2013-03-06 03:57:00,36.9,16.0,30.34,NE,56,0.0,1.0,42,0.00,,,0.00,WeatherTracker,2013-03-06 09:57:00,
2013-03-06 04:02:00,36.8,15.9,30.34,ENE,68,0.0,1.0,42,0.00,,,0.00,WeatherTracker,2013-03-06 10:02:00,
2013-03-06 04:07:00,36.7,15.8,30.34,ENE,69,0.0,1.0,42,0.00,,,0.00,WeatherTracker,2013-03-06 10:07:00,
2013-03-06 04:12:00,36.6,15.7,30.34,ENE,63,0.0,1.0,42,0.00,,,0.00,WeatherTracker,2013-03-06 10:12:00,
2013-03-06 04:17:00,36.5,15.6,30.34,ENE,75,1.0,1.0,42,0.00,,,0.00,WeatherTracker,2013-03-06 10:17:00,
2013-03-06 04:23:00,36.5,15.6,30.34,NE,46,0.0,1.0,42,0.00,,,0.00,WeatherTracker,2013-03-06 10:23:00,
2013-03-06 04:28:00,36.4,16.1,30.34,ENE,66,0.0,1.0,43,0.00,,,0.00,WeatherTracker,2013-03-06 10:28:00,
2013-03-06 04:33:00,36.2,15.9,30.34,ENE,66,0.0,1.0,43,0.00,,,0.00,WeatherTracker,2013-03-06 10:33:00,
2013-03-06 04:38:00,36.1,15.8,30.35,ENE,66,0.0,1.0,43,0.00,,,0.00,WeatherTracker,2013-03-06 10:38:00,
2013-03-06 04:43:00,36.0,16.2,30.35,ENE,68,0.0,1.0,44,0.00,,,0.00,WeatherTracker,2013-03-06 10:43:00,
2013-03-06 04:48:00,35.7,16.0,30.35,ENE,73,0.0,1.0,44,0.00,,,0.00,WeatherTracker,2013-03-06 10:48:00,
2013-03-06 04:53:00,35.5,16.3,30.36,ENE,68,0.0,1.0,45,0.00,,,0.00,WeatherTracker,2013-03-06 10:53:00,
2013-03-06 04:58:00,35.2,16.5,30.36,ENE,63,0.0,1.0,46,0.00,,,0.00,WeatherTracker,2013-03-06 10:58:00,
2013-03-06 05:03:00,35.0,16.3,30.36,ENE,63,1.0,1.0,46,0.00,,,0.00,WeatherTracker,2013-03-06 11:03:00,
2013-03-06 05:08:00,34.9,16.7,30.37,ENE,73,0.0,1.0,47,0.00,,,0.00,WeatherTracker,2013-03-06 11:08:00,
2013-03-06 05:13:00,34.8,16.6,30.37,ENE,72,0.0,1.0,47,0.00,,,0.00,WeatherTracker,2013-03-06 11:13:00,
2013-03-06 05:18:00,34.8,16.6,30.37,ENE,65,0.0,1.0,47,0.00,,,0.00,WeatherTracker,2013-03-06 11:18:00,
2013-03-06 05:23:00,34.7,17.0,30.38,ENE,73,0.0,1.0,48,0.00,,,0.00,WeatherTracker,2013-03-06 11:23:00,
2013-03-06 05:28:00,34.5,16.9,30.38,ENE,71,0.0,0.0,48,0.00,,,0.00,WeatherTracker,2013-03-06 11:28:00,
2013-03-06 05:33:00,34.3,16.7,30.38,ENE,70,0.0,0.0,48,0.00,,,0.00,WeatherTracker,2013-03-06 11:33:00,
2013-03-06 05:38:00,34.3,17.1,30.38,NE,51,0.0,1.0,49,0.00,,,0.00,WeatherTracker,2013-03-06 11:38:00,
2013-03-06 05:43:00,34.2,17.1,30.38,NE,51,0.0,1.0,49,0.00,,,0.00,WeatherTracker,2013-03-06 11:43:00,
2013-03-06 05:48:00,34.1,17.0,30.38,ENE,76,0.0,1.0,49,0.00,,,0.00,WeatherTracker,2013-03-06 11:48:00,
2013-03-06 05:53:00,34.1,17.0,30.38,ENE,66,0.0,1.0,49,0.00,,,0.00,WeatherTracker,2013-03-06 11:53:00,
2013-03-06 05:58:00,34.0,16.9,30.38,NE,56,1.0,2.0,49,0.00,,,0.00,WeatherTracker,2013-03-06 11:58:00,
2013-03-06 06:03:00,34.0,16.9,30.38,NE,54,1.0,2.0,49,0.00,,,0.00,WeatherTracker,2013-03-06 12:03:00,
2013-03-06 06:08:00,33.9,16.8,30.38,ENE,60,0.0,2.0,49,0.00,,,0.00,WeatherTracker,2013-03-06 12:08:00,
2013-03-06 06:13:00,34.1,17.0,30.39,ENE,77,0.0,2.0,49,0.00,,,0.00,WeatherTracker,2013-03-06 12:13:00,
2013-03-06 06:18:00,34.2,17.1,30.39,ENE,65,0.0,2.0,49,0.00,,,0.00,WeatherTracker,2013-03-06 12:18:00,
2013-03-06 06:23:00,34.2,17.5,30.39,NE,54,0.0,2.0,50,0.00,,,0.00,WeatherTracker,2013-03-06 12:23:00,
2013-03-06 06:29:00,34.2,17.5,30.39,ENE,71,0.0,1.0,50,0.00,,,0.00,WeatherTracker,2013-03-06 12:29:00,
2013-03-06 06:34:00,34.3,17.6,30.39,ENE,64,0.0,2.0,50,0.00,,,0.00,WeatherTracker,2013-03-06 12:34:00,
2013-03-06 06:39:00,34.4,17.7,30.39,ENE,77,1.0,2.0,50,0.00,,,0.00,WeatherTracker,2013-03-06 12:39:00,
2013-03-06 06:44:00,34.3,17.6,30.39,ENE,57,0.0,2.0,50,0.00,,,0.00,WeatherTracker,2013-03-06 12:44:00,
2013-03-06 06:49:00,34.3,17.6,30.39,ENE,74,0.0,2.0,50,0.00,,,0.00,WeatherTracker,2013-03-06 12:49:00,
2013-03-06 06:54:00,34.5,17.8,30.39,ENE,59,0.0,2.0,50,0.00,,,0.00,WeatherTracker,2013-03-06 12:54:00,
2013-03-06 06:59:00,34.7,18.0,30.39,ENE,65,0.0,2.0,50,0.00,,,0.00,WeatherTracker,2013-03-06 12:59:00,
2013-03-06 07:04:00,34.8,18.1,30.40,NE,56,0.0,2.0,50,0.00,,,0.00,WeatherTracker,2013-03-06 13:04:00,
2013-03-06 07:09:00,34.9,18.2,30.40,ENE,70,0.0,1.0,50,0.00,,,0.00,WeatherTracker,2013-03-06 13:09:00,
2013-03-06 07:14:00,35.0,17.8,30.41,ENE,71,0.0,1.0,49,0.00,,,0.00,WeatherTracker,2013-03-06 13:14:00,
2013-03-06 07:19:00,35.1,18.4,30.41,ENE,71,0.0,1.0,50,0.00,,,0.00,WeatherTracker,2013-03-06 13:19:00,
2013-03-06 07:24:00,35.5,18.3,30.41,ENE,65,0.0,1.0,49,0.00,,,0.00,WeatherTracker,2013-03-06 13:24:00,
2013-03-06 07:29:00,36.0,18.7,30.41,ENE,72,0.0,1.0,49,0.00,,,0.00,WeatherTracker,2013-03-06 13:29:00,
2013-03-06 07:34:00,36.8,19.0,30.42,ENE,78,0.0,2.0,48,0.00,,,0.00,WeatherTracker,2013-03-06 13:34:00,
2013-03-06 07:39:00,37.9,19.0,30.42,ENE,59,0.0,2.0,46,0.00,,,0.00,WeatherTracker,2013-03-06 13:39:00,
2013-03-06 07:44:00,39.3,19.8,30.43,ENE,65,1.0,2.0,45,0.00,,,0.00,WeatherTracker,2013-03-06 13:44:00,
2013-03-06 07:49:00,40.5,19.8,30.43,ENE,64,0.0,2.0,43,0.00,,,0.00,WeatherTracker,2013-03-06 13:49:00,
2013-03-06 07:54:00,41.4,20.0,30.43,NE,45,1.0,4.0,42,0.00,,,0.00,WeatherTracker,2013-03-06 13:54:00,
2013-03-06 07:59:00,42.0,20.0,30.43,NE,46,0.0,4.0,41,0.00,,,0.00,WeatherTracker,2013-03-06 13:59:00,
2013-03-06 08:04:00,42.4,20.4,30.43,ENE,72,0.0,3.0,41,0.00,,,0.00,WeatherTracker,2013-03-06 14:04:00,
2013-03-06 08:09:00,42.6,20.0,30.43,SSE,149,0.0,5.0,40,0.00,,,0.00,WeatherTracker,2013-03-06 14:09:00,
2013-03-06 08:14:00,42.7,20.1,30.43,NE,56,1.0,5.0,40,0.00,,,0.00,WeatherTracker,2013-03-06 14:14:00,
2013-03-06 08:19:00,42.8,20.2,30.43,NE,44,2.0,5.0,40,0.00,,,0.00,WeatherTracker,2013-03-06 14:19:00,
2013-03-06 08:24:00,43.0,20.3,30.43,NE,56,0.0,4.0,40,0.00,,,0.00,WeatherTracker,2013-03-06 14:24:00,
2013-03-06 08:29:00,43.2,21.1,30.43,NE,39,1.0,4.0,41,0.00,,,0.00,WeatherTracker,2013-03-06 14:29:00,
2013-03-06 08:34:00,43.5,21.4,30.43,NNE,30,0.0,5.0,41,0.00,,,0.00,WeatherTracker,2013-03-06 14:34:00,
2013-03-06 08:39:00,44.0,21.8,30.43,NE,44,2.0,5.0,41,0.00,,,0.00,WeatherTracker,2013-03-06 14:39:00,
2013-03-06 08:44:00,44.6,21.2,30.43,ENE,70,1.0,6.0,39,0.00,,,0.00,WeatherTracker,2013-03-06 14:44:00,
2013-03-06 08:49:00,45.1,21.6,30.43,ENE,62,2.0,6.0,39,0.00,,,0.00,WeatherTracker,2013-03-06 14:49:00,
2013-03-06 08:54:00,45.4,21.9,30.43,NE,56,2.0,5.0,39,0.00,,,0.00,WeatherTracker,2013-03-06 14:54:00,
2013-03-06 08:59:00,45.6,21.5,30.44,ENE,76,0.0,5.0,38,0.00,,,0.00,WeatherTracker,2013-03-06 14:59:00,
2013-03-06 09:04:00,45.9,21.7,30.44,ENE,78,3.0,5.0,38,0.00,,,0.00,WeatherTracker,2013-03-06 15:04:00,
2013-03-06 09:09:00,46.3,21.5,30.44,ENE,73,1.0,4.0,37,0.00,,,0.00,WeatherTracker,2013-03-06 15:09:00,
2013-03-06 09:15:00,46.4,20.9,30.44,ENE,72,3.0,6.0,36,0.00,,,0.00,WeatherTracker,2013-03-06 15:15:00,
2013-03-06 09:20:00,46.4,20.9,30.44,NE,51,2.0,6.0,36,0.00,,,0.00,WeatherTracker,2013-03-06 15:20:00,
2013-03-06 09:25:00,46.6,21.1,30.45,ENE,66,4.0,6.0,36,0.00,,,0.00,WeatherTracker,2013-03-06 15:25:00,
2013-03-06 09:30:00,46.5,21.0,30.45,WNW,284,1.0,6.0,36,0.00,,,0.00,WeatherTracker,2013-03-06 15:30:00,
2013-03-06 09:35:00,46.5,21.6,30.45,ENE,70,1.0,5.0,37,0.00,,,0.00,WeatherTracker,2013-03-06 15:35:00,
2013-03-06 09:40:00,47.1,21.5,30.45,NNE,23,1.0,5.0,36,0.00,,,0.00,WeatherTracker,2013-03-06 15:40:00,
2013-03-06 09:45:00,48.1,21.8,30.45,East,97,2.0,7.0,35,0.00,,,0.00,WeatherTracker,2013-03-06 15:45:00,
2013-03-06 09:50:00,48.7,21.6,30.45,NE,38,2.0,7.0,34,0.00,,,0.00,WeatherTracker,2013-03-06 15:50:00,
2013-03-06 09:55:00,49.2,22.0,30.45,ENE,57,3.0,6.0,34,0.00,,,0.00,WeatherTracker,2013-03-06 15:55:00,
2013-03-06 10:00:00,49.8,21.9,30.45,NNE,32,1.0,6.0,33,0.00,,,0.00,WeatherTracker,2013-03-06 16:00:00,
2013-03-06 10:05:00,50.1,22.1,30.45,ENE,66,5.0,5.0,33,0.00,,,0.00,WeatherTracker,2013-03-06 16:05:00,
2013-03-06 10:10:00,50.4,21.7,30.45,NE,46,3.0,7.0,32,0.00,,,0.00,WeatherTracker,2013-03-06 16:10:00,
2013-03-06 10:15:00,51.0,22.2,30.45,NE,34,2.0,7.0,32,0.00,,,0.00,WeatherTracker,2013-03-06 16:15:00,
2013-03-06 10:20:00,51.6,21.2,30.45,ENE,70,4.0,6.0,30,0.00,,,0.00,WeatherTracker,2013-03-06 16:20:00,
2013-03-06 10:25:00,52.4,21.9,30.44,ENE,65,0.0,6.0,30,0.00,,,0.00,WeatherTracker,2013-03-06 16:25:00,
2013-03-06 10:30:00,53.0,21.6,30.44,ENE,63,2.0,6.0,29,0.00,,,0.00,WeatherTracker,2013-03-06 16:30:00,
2013-03-06 10:35:00,53.8,22.3,30.44,NE,40,2.0,6.0,29,0.00,,,0.00,WeatherTracker,2013-03-06 16:35:00,
2013-03-06 10:40:00,54.3,21.9,30.44,NE,55,2.0,5.0,28,0.00,,,0.00,WeatherTracker,2013-03-06 16:40:00,
2013-03-06 10:45:00,54.9,23.3,30.44,ESE,122,0.0,6.0,29,0.00,,,0.00,WeatherTracker,2013-03-06 16:45:00,
2013-03-06 10:50:00,55.1,22.6,30.44,SE,141,0.0,6.0,28,0.00,,,0.00,WeatherTracker,2013-03-06 16:50:00,
2013-03-06 10:55:00,55.4,22.0,30.44,ENE,66,3.0,6.0,27,0.00,,,0.00,WeatherTracker,2013-03-06 16:55:00,
2013-03-06 11:00:00,55.1,21.7,30.44,North,6,0.0,5.0,27,0.00,,,0.00,WeatherTracker,2013-03-06 17:00:00,
2013-03-06 11:05:00,55.0,22.5,30.44,NE,44,0.0,5.0,28,0.00,,,0.00,WeatherTracker,2013-03-06 17:05:00,
2013-03-06 11:10:00,54.8,20.6,30.44,ENE,64,0.0,4.0,26,0.00,,,0.00,WeatherTracker,2013-03-06 17:10:00,
2013-03-06 11:15:00,55.2,21.8,30.44,NNE,27,1.0,5.0,27,0.00,,,0.00,WeatherTracker,2013-03-06 17:15:00,
2013-03-06 11:20:00,55.9,20.6,30.43,NE,54,1.0,6.0,25,0.00,,,0.00,WeatherTracker,2013-03-06 17:20:00,
2013-03-06 11:25:00,56.1,20.8,30.43,ESE,123,3.0,7.0,25,0.00,,,0.00,WeatherTracker,2013-03-06 17:25:00,
2013-03-06 11:31:00,56.2,22.7,30.43,ENE,65,1.0,8.0,27,0.00,,,0.00,WeatherTracker,2013-03-06 17:31:00,
2013-03-06 11:36:00,57.1,22.5,30.43,ENE,61,3.0,7.0,26,0.00,,,0.00,WeatherTracker,2013-03-06 17:36:00,
2013-03-06 11:41:00,57.4,22.8,30.42,ENE,70,3.0,6.0,26,0.00,,,0.00,WeatherTracker,2013-03-06 17:41:00,
2013-03-06 11:46:00,57.7,21.2,30.42,NE,48,2.0,6.0,24,0.00,,,0.00,WeatherTracker,2013-03-06 17:46:00,
2013-03-06 11:51:00,57.6,21.1,30.42,ESE,122,1.0,8.0,24,0.00,,,0.00,WeatherTracker,2013-03-06 17:51:00,
2013-03-06 11:56:00,57.7,21.2,30.41,ENE,60,2.0,8.0,24,0.00,,,0.00,WeatherTracker,2013-03-06 17:56:00,
2013-03-06 12:01:00,57.8,21.3,30.41,ENE,77,0.0,6.0,24,0.00,,,0.00,WeatherTracker,2013-03-06 18:01:00,
2013-03-06 12:06:00,58.5,19.8,30.40,NE,54,2.0,3.0,22,0.00,,,0.00,WeatherTracker,2013-03-06 18:06:00,
2013-03-06 12:11:00,58.8,19.0,30.40,ENE,59,3.0,4.0,21,0.00,,,0.00,WeatherTracker,2013-03-06 18:11:00,
2013-03-06 12:16:00,58.9,21.2,30.40,NE,43,1.0,4.0,23,0.00,,,0.00,WeatherTracker,2013-03-06 18:16:00,
2013-03-06 12:21:00,59.3,22.5,30.39,ENE,70,4.0,6.0,24,0.00,,,0.00,WeatherTracker,2013-03-06 18:21:00,
2013-03-06 12:26:00,60.1,21.1,30.39,ESE,110,1.0,6.0,22,0.00,,,0.00,WeatherTracker,2013-03-06 18:26:00,
2013-03-06 12:31:00,60.2,22.3,30.38,NE,42,2.0,6.0,23,0.00,,,0.00,WeatherTracker,2013-03-06 18:31:00,
2013-03-06 12:36:00,60.5,22.5,30.38,SE,132,1.0,6.0,23,0.00,,,0.00,WeatherTracker,2013-03-06 18:36:00,
2013-03-06 12:41:00,60.7,20.5,30.38,ESE,111,4.0,10.0,21,0.00,,,0.00,WeatherTracker,2013-03-06 18:41:00,
2013-03-06 12:46:00,61.1,19.7,30.38,SSE,149,2.0,10.0,20,0.00,,,0.00,WeatherTracker,2013-03-06 18:46:00,
2013-03-06 12:51:00,61.3,19.9,30.37,ESE,108,1.0,7.0,20,0.00,,,0.00,WeatherTracker,2013-03-06 18:51:00,
2013-03-06 12:56:00,61.6,18.9,30.36,ENE,72,1.0,6.0,19,0.00,,,0.00,WeatherTracker,2013-03-06 18:56:00,
2013-03-06 13:01:00,61.6,20.1,30.36,SSW,193,0.0,6.0,20,0.00,,,0.00,WeatherTracker,2013-03-06 19:01:00,
2013-03-06 13:06:00,61.5,18.9,30.36,ENE,63,3.0,7.0,19,0.00,,,0.00,WeatherTracker,2013-03-06 19:06:00,
2013-03-06 13:11:00,61.5,18.9,30.36,ENE,58,4.0,7.0,19,0.00,,,0.00,WeatherTracker,2013-03-06 19:11:00,
2013-03-06 13:16:00,62.1,20.6,30.35,NE,45,2.0,6.0,20,0.00,,,0.00,WeatherTracker,2013-03-06 19:16:00,
2013-03-06 13:21:00,62.2,21.8,30.35,NE,39,0.0,6.0,21,0.00,,,0.00,WeatherTracker,2013-03-06 19:21:00,
2013-03-06 13:26:00,62.0,19.3,30.34,NE,46,2.0,6.0,19,0.00,,,0.00,WeatherTracker,2013-03-06 19:26:00,
2013-03-06 13:31:00,61.7,19.0,30.34,ENE,62,4.0,8.0,19,0.00,,,0.00,WeatherTracker,2013-03-06 19:31:00,
2013-03-06 13:36:00,61.5,20.1,30.34,ENE,63,0.0,8.0,20,0.00,,,0.00,WeatherTracker,2013-03-06 19:36:00,
2013-03-06 13:41:00,62.1,20.6,30.33,ESE,103,2.0,5.0,20,0.00,,,0.00,WeatherTracker,2013-03-06 19:41:00,
2013-03-06 13:46:00,62.7,19.9,30.32,SE,129,1.0,5.0,19,0.00,,,0.00,WeatherTracker,2013-03-06 19:46:00,
2013-03-06 13:51:00,63.2,20.3,30.32,East,95,1.0,6.0,19,0.00,,,0.00,WeatherTracker,2013-03-06 19:51:00,
2013-03-06 13:57:00,64.1,18.4,30.32,ENE,66,2.0,9.0,17,0.00,,,0.00,WeatherTracker,2013-03-06 19:57:00,
2013-03-06 14:02:00,63.9,19.6,30.31,ENE,60,1.0,9.0,18,0.00,,,0.00,WeatherTracker,2013-03-06 20:02:00,
2013-03-06 14:07:00,64.6,18.8,30.31,ESE,108,0.0,6.0,17,0.00,,,0.00,WeatherTracker,2013-03-06 20:07:00,
2013-03-06 14:12:00,64.8,19.0,30.30,ESE,106,0.0,6.0,17,0.00,,,0.00,WeatherTracker,2013-03-06 20:12:00,
2013-03-06 14:17:00,65.2,19.3,30.30,NE,53,3.0,6.0,17,0.00,,,0.00,WeatherTracker,2013-03-06 20:17:00,
2013-03-06 14:22:00,64.5,18.7,30.30,SE,134,0.0,7.0,17,0.00,,,0.00,WeatherTracker,2013-03-06 20:22:00,
2013-03-06 14:27:00,64.2,18.5,30.29,SSE,159,0.0,7.0,17,0.00,,,0.00,WeatherTracker,2013-03-06 20:27:00,
2013-03-06 14:32:00,63.9,18.2,30.29,NNE,30,1.0,5.0,17,0.00,,,0.00,WeatherTracker,2013-03-06 20:32:00,
2013-03-06 14:37:00,63.5,19.2,30.29,ENE,65,0.0,5.0,18,0.00,,,0.00,WeatherTracker,2013-03-06 20:37:00,
2013-03-06 14:42:00,63.7,19.4,30.28,East,79,1.0,3.0,18,0.00,,,0.00,WeatherTracker,2013-03-06 20:42:00,
2013-03-06 14:47:00,63.8,19.5,30.28,South,184,0.0,3.0,18,0.00,,,0.00,WeatherTracker,2013-03-06 20:47:00,
2013-03-06 14:52:00,63.6,18.0,30.28,SE,135,0.0,5.0,17,0.00,,,0.00,WeatherTracker,2013-03-06 20:52:00,
2013-03-06 14:57:00,63.4,19.2,30.28,ENE,68,0.0,5.0,18,0.00,,,0.00,WeatherTracker,2013-03-06 20:57:00,
2013-03-06 15:02:00,63.2,17.7,30.28,ENE,62,3.0,4.0,17,0.00,,,0.00,WeatherTracker,2013-03-06 21:02:00,
2013-03-06 15:07:00,62.9,17.4,30.27,ESE,102,1.0,5.0,17,0.00,,,0.00,WeatherTracker,2013-03-06 21:07:00,
2013-03-06 15:12:00,62.6,15.8,30.28,ENE,66,0.0,5.0,16,0.00,,,0.00,WeatherTracker,2013-03-06 21:12:00,
2013-03-06 15:17:00,62.5,17.1,30.27,SE,143,0.0,2.0,17,0.00,,,0.00,WeatherTracker,2013-03-06 21:17:00,
2013-03-06 15:22:00,62.6,17.2,30.28,NE,41,0.0,2.0,17,0.00,,,0.00,WeatherTracker,2013-03-06 21:22:00,
2013-03-06 15:27:00,62.6,15.8,30.28,SSE,153,0.0,2.0,16,0.00,,,0.00,WeatherTracker,2013-03-06 21:27:00,
2013-03-06 15:32:00,62.5,15.7,30.27,ENE,73,0.0,3.0,16,0.00,,,0.00,WeatherTracker,2013-03-06 21:32:00,
2013-03-06 15:37:00,62.4,15.6,30.26,SE,126,0.0,4.0,16,0.00,,,0.00,WeatherTracker,2013-03-06 21:37:00,
2013-03-06 15:42:00,62.5,15.7,30.27,SE,130,0.0,4.0,16,0.00,,,0.00,WeatherTracker,2013-03-06 21:42:00,
2013-03-06 15:47:00,62.5,14.2,30.26,SE,145,0.0,3.0,15,0.00,,,0.00,WeatherTracker,2013-03-06 21:47:00,
2013-03-06 15:52:00,62.5,15.7,30.26,East,92,1.0,3.0,16,0.00,,,0.00,WeatherTracker,2013-03-06 21:52:00,
2013-03-06 15:57:00,62.4,14.2,30.25,ENE,73,1.0,4.0,15,0.00,,,0.00,WeatherTracker,2013-03-06 21:57:00,
2013-03-06 16:03:00,62.2,15.5,30.25,SW,233,0.0,6.0,16,0.00,,,0.00,WeatherTracker,2013-03-06 22:03:00,
2013-03-06 16:08:00,62.1,15.4,30.25,South,181,0.0,2.0,16,0.00,,,0.00,WeatherTracker,2013-03-06 22:08:00,
2013-03-06 16:13:00,62.1,15.4,30.26,SE,146,0.0,2.0,16,0.00,,,0.00,WeatherTracker,2013-03-06 22:13:00,
2013-03-06 16:18:00,62.0,16.7,30.27,WSW,249,0.0,2.0,17,0.00,,,0.00,WeatherTracker,2013-03-06 22:18:00,
2013-03-06 16:23:00,62.1,18.1,30.27,SE,134,0.0,3.0,18,0.00,,,0.00,WeatherTracker,2013-03-06 22:23:00,
2013-03-06 16:28:00,62.1,16.8,30.26,West,262,0.0,3.0,17,0.00,,,0.00,WeatherTracker,2013-03-06 22:28:00,
2013-03-06 16:33:00,62.0,18.0,30.25,East,82,0.0,2.0,18,0.00,,,0.00,WeatherTracker,2013-03-06 22:33:00,
2013-03-06 16:38:00,62.1,15.4,30.25,SW,222,0.0,3.0,16,0.00,,,0.00,WeatherTracker,2013-03-06 22:38:00,
2013-03-06 16:43:00,62.0,16.7,30.25,East,82,4.0,4.0,17,0.00,,,0.00,WeatherTracker,2013-03-06 22:43:00,
2013-03-06 16:48:00,61.7,16.5,30.25,WSW,257,0.0,4.0,17,0.00,,,0.00,WeatherTracker,2013-03-06 22:48:00,
2013-03-06 16:53:00,61.6,16.4,30.25,East,91,1.0,4.0,17,0.00,,,0.00,WeatherTracker,2013-03-06 22:53:00,
2013-03-06 16:58:00,61.5,16.3,30.25,ESE,103,0.0,3.0,17,0.00,,,0.00,WeatherTracker,2013-03-06 22:58:00,
2013-03-06 17:03:00,61.5,17.6,30.25,WSW,255,1.0,3.0,18,0.00,,,0.00,WeatherTracker,2013-03-06 23:03:00,
2013-03-06 17:08:00,61.4,17.5,30.25,SSE,166,0.0,2.0,18,0.00,,,0.00,WeatherTracker,2013-03-06 23:08:00,
2013-03-06 17:13:00,61.4,17.5,30.25,SSE,158,1.0,2.0,18,0.00,,,0.00,WeatherTracker,2013-03-06 23:13:00,
2013-03-06 17:18:00,61.4,18.8,30.25,SE,143,0.0,3.0,19,0.00,,,0.00,WeatherTracker,2013-03-06 23:18:00,
2013-03-06 17:23:00,61.6,18.9,30.24,NE,48,0.0,4.0,19,0.00,,,0.00,WeatherTracker,2013-03-06 23:23:00,
2013-03-06 17:28:00,61.7,19.0,30.25,SE,136,1.0,4.0,19,0.00,,,0.00,WeatherTracker,2013-03-06 23:28:00,
2013-03-06 17:33:00,61.7,19.0,30.24,West,264,0.0,2.0,19,0.00,,,0.00,WeatherTracker,2013-03-06 23:33:00,
2013-03-06 17:38:00,61.7,19.0,30.24,West,266,0.0,1.0,19,0.00,,,0.00,WeatherTracker,2013-03-06 23:38:00,
2013-03-06 17:43:00,61.6,18.9,30.25,SSE,160,0.0,2.0,19,0.00,,,0.00,WeatherTracker,2013-03-06 23:43:00,
2013-03-06 17:48:00,61.4,18.8,30.25,South,169,0.0,2.0,19,0.00,,,0.00,WeatherTracker,2013-03-06 23:48:00,
2013-03-06 17:53:00,61.2,17.4,30.25,ESE,108,2.0,2.0,18,0.00,,,0.00,WeatherTracker,2013-03-06 23:53:00,
2013-03-06 17:58:00,61.1,17.3,30.25,SE,145,0.0,3.0,18,0.00,,,0.00,WeatherTracker,2013-03-06 23:58:00,
2013-03-06 18:03:00,60.8,15.7,30.25,SE,132,0.0,3.0,17,0.00,,,0.00,WeatherTracker,2013-03-07 00:03:00,
2013-03-06 18:08:00,60.4,16.7,30.25,SSW,207,1.0,3.0,18,0.00,,,0.00,WeatherTracker,2013-03-07 00:08:00,
2013-03-06 18:13:00,59.9,16.3,30.26,SSW,200,0.0,3.0,18,0.00,,,0.00,WeatherTracker,2013-03-07 00:13:00,
2013-03-06 18:18:00,59.6,16.1,30.25,SE,146,0.0,3.0,18,0.00,,,0.00,WeatherTracker,2013-03-07 00:18:00,
2013-03-06 18:23:00,59.1,15.7,30.25,SSE,159,0.0,1.0,18,0.00,,,0.00,WeatherTracker,2013-03-07 00:23:00,
2013-03-06 18:28:00,58.7,16.6,30.25,SE,146,0.0,1.0,19,0.00,,,0.00,WeatherTracker,2013-03-07 00:28:00,
2013-03-06 18:33:00,58.2,16.2,30.25,SE,141,0.0,1.0,19,0.00,,,0.00,WeatherTracker,2013-03-07 00:33:00,
2013-03-06 18:38:00,57.7,16.9,30.25,SE,141,0.0,0.0,20,0.00,,,0.00,WeatherTracker,2013-03-07 00:38:00,
2013-03-06 18:43:00,57.1,16.4,30.25,SE,141,0.0,0.0,20,0.00,,,0.00,WeatherTracker,2013-03-07 00:43:00,
2013-03-06 18:48:00,56.6,17.1,30.25,SE,141,0.0,0.0,21,0.00,,,0.00,WeatherTracker,2013-03-07 00:48:00,
2013-03-06 18:53:00,56.2,17.9,30.24,SE,141,0.0,0.0,22,0.00,,,0.00,WeatherTracker,2013-03-07 00:53:00,
2013-03-06 18:59:00,55.9,17.6,30.24,SE,141,0.0,0.0,22,0.00,,,0.00,WeatherTracker,2013-03-07 00:59:00,
2013-03-06 19:04:00,55.7,18.5,30.24,SE,141,0.0,0.0,23,0.00,,,0.00,WeatherTracker,2013-03-07 01:04:00,
2013-03-06 19:09:00,55.5,18.3,30.24,SE,141,0.0,0.0,23,0.00,,,0.00,WeatherTracker,2013-03-07 01:09:00,
2013-03-06 19:14:00,55.4,19.2,30.23,SSE,156,0.0,1.0,24,0.00,,,0.00,WeatherTracker,2013-03-07 01:14:00,
2013-03-06 19:19:00,55.5,19.3,30.23,SE,136,0.0,1.0,24,0.00,,,0.00,WeatherTracker,2013-03-07 01:19:00,
2013-03-06 19:24:00,55.7,21.4,30.23,SE,129,0.0,1.0,26,0.00,,,0.00,WeatherTracker,2013-03-07 01:24:00,
2013-03-06 19:29:00,55.7,20.4,30.23,SE,141,0.0,2.0,25,0.00,,,0.00,WeatherTracker,2013-03-07 01:29:00,
2013-03-06 19:34:00,55.7,20.4,30.23,SE,141,0.0,2.0,25,0.00,,,0.00,WeatherTracker,2013-03-07 01:34:00,
2013-03-06 19:39:00,55.6,20.3,30.24,SE,146,0.0,1.0,25,0.00,,,0.00,WeatherTracker,2013-03-07 01:39:00,
2013-03-06 19:44:00,55.6,21.3,30.24,SE,145,0.0,1.0,26,0.00,,,0.00,WeatherTracker,2013-03-07 01:44:00,
2013-03-06 19:49:00,55.4,21.1,30.24,SE,142,0.0,1.0,26,0.00,,,0.00,WeatherTracker,2013-03-07 01:49:00,
2013-03-06 19:54:00,55.3,21.9,30.25,SE,142,0.0,0.0,27,0.00,,,0.00,WeatherTracker,2013-03-07 01:54:00,
2013-03-06 19:59:00,55.1,21.7,30.25,SE,142,0.0,0.0,27,0.00,,,0.00,WeatherTracker,2013-03-07 01:59:00,
2013-03-06 20:04:00,54.8,21.5,30.26,SE,142,0.0,0.0,27,0.00,,,0.00,WeatherTracker,2013-03-07 02:04:00,
2013-03-06 20:09:00,54.5,22.1,30.25,SE,142,0.0,0.0,28,0.00,,,0.00,WeatherTracker,2013-03-07 02:09:00,
2013-03-06 20:14:00,54.1,20.9,30.25,SSE,148,0.0,1.0,27,0.00,,,0.00,WeatherTracker,2013-03-07 02:14:00,
2013-03-06 20:19:00,53.7,21.4,30.25,SSE,148,0.0,1.0,28,0.00,,,0.00,WeatherTracker,2013-03-07 02:19:00,
2013-03-06 20:24:00,53.4,22.0,30.25,SSE,148,0.0,0.0,29,0.00,,,0.00,WeatherTracker,2013-03-07 02:24:00,
2013-03-06 20:29:00,53.4,22.8,30.24,SSE,148,0.0,0.0,30,0.00,,,0.00,WeatherTracker,2013-03-07 02:29:00,
2013-03-06 20:34:00,53.0,23.2,30.25,SSE,148,0.0,0.0,31,0.00,,,0.00,WeatherTracker,2013-03-07 02:34:00,
2013-03-06 20:39:00,52.6,22.8,30.25,SSE,148,0.0,0.0,31,0.00,,,0.00,WeatherTracker,2013-03-07 02:39:00,
2013-03-06 20:44:00,52.2,22.5,30.25,SSE,148,0.0,0.0,31,0.00,,,0.00,WeatherTracker,2013-03-07 02:44:00,
2013-03-06 20:49:00,52.0,23.1,30.25,SSE,148,0.0,0.0,32,0.00,,,0.00,WeatherTracker,2013-03-07 02:49:00,
2013-03-06 20:54:00,51.8,22.1,30.25,SSE,148,0.0,0.0,31,0.00,,,0.00,WeatherTracker,2013-03-07 02:54:00,
2013-03-06 20:59:00,51.7,22.1,30.25,SE,146,0.0,0.0,31,0.00,,,0.00,WeatherTracker,2013-03-07 02:59:00,
2013-03-06 21:04:00,51.3,22.5,30.25,SE,146,0.0,0.0,32,0.00,,,0.00,WeatherTracker,2013-03-07 03:04:00,
2013-03-06 21:10:00,50.9,22.1,30.25,SE,146,0.0,0.0,32,0.00,,,0.00,WeatherTracker,2013-03-07 03:10:00,
2013-03-06 21:15:00,50.5,21.8,30.25,SE,146,0.0,0.0,32,0.00,,,0.00,WeatherTracker,2013-03-07 03:15:00,
2013-03-06 21:20:00,50.4,23.1,30.25,SE,146,0.0,0.0,34,0.00,,,0.00,WeatherTracker,2013-03-07 03:20:00,
2013-03-06 21:25:00,50.2,23.6,30.25,SSE,147,0.0,0.0,35,0.00,,,0.00,WeatherTracker,2013-03-07 03:25:00,
2013-03-06 21:30:00,50.4,23.1,30.25,SE,146,0.0,0.0,34,0.00,,,0.00,WeatherTracker,2013-03-07 03:30:00,
2013-03-06 21:35:00,50.2,23.6,30.26,SE,146,0.0,0.0,35,0.00,,,0.00,WeatherTracker,2013-03-07 03:35:00,
2013-03-06 21:40:00,49.9,23.3,30.26,SE,146,0.0,0.0,35,0.00,,,0.00,WeatherTracker,2013-03-07 03:40:00,
2013-03-06 21:45:00,49.7,23.8,30.26,SE,146,0.0,0.0,36,0.00,,,0.00,WeatherTracker,2013-03-07 03:45:00,
2013-03-06 21:50:00,49.7,23.8,30.26,SE,146,0.0,0.0,36,0.00,,,0.00,WeatherTracker,2013-03-07 03:50:00,
2013-03-06 21:55:00,49.3,24.1,30.26,SE,146,0.0,0.0,37,0.00,,,0.00,WeatherTracker,2013-03-07 03:55:00,
2013-03-06 22:00:00,49.2,23.4,30.25,SSE,147,0.0,0.0,36,0.00,,,0.00,WeatherTracker,2013-03-07 04:00:00,
2013-03-06 22:05:00,49.4,22.9,30.25,SE,146,0.0,0.0,35,0.00,,,0.00,WeatherTracker,2013-03-07 04:05:00,
2013-03-06 22:10:00,49.6,23.1,30.25,SE,146,0.0,0.0,35,0.00,,,0.00,WeatherTracker,2013-03-07 04:10:00,
2013-03-06 22:15:00,49.8,25.2,30.25,SSE,147,0.0,0.0,38,0.00,,,0.00,WeatherTracker,2013-03-07 04:15:00,
2013-03-06 22:20:00,49.5,24.3,30.25,SSE,147,0.0,0.0,37,0.00,,,0.00,WeatherTracker,2013-03-07 04:20:00,
2013-03-06 22:25:00,49.4,24.9,30.25,SE,146,0.0,0.0,38,0.00,,,0.00,WeatherTracker,2013-03-07 04:25:00,
2013-03-06 22:30:00,49.1,24.6,30.25,SE,146,0.0,0.0,38,0.00,,,0.00,WeatherTracker,2013-03-07 04:30:00,
2013-03-06 22:35:00,49.1,25.8,30.25,SE,146,0.0,0.0,40,0.00,,,0.00,WeatherTracker,2013-03-07 04:35:00,
2013-03-06 22:40:00,49.0,25.1,30.25,SE,146,0.0,0.0,39,0.00,,,0.00,WeatherTracker,2013-03-07 04:40:00,
2013-03-06 22:45:00,48.5,26.5,30.25,SE,146,0.0,0.0,42,0.00,,,0.00,WeatherTracker,2013-03-07 04:45:00,
2013-03-06 22:50:00,47.7,26.3,30.25,SE,146,0.0,0.0,43,0.00,,,0.00,WeatherTracker,2013-03-07 04:50:00,
2013-03-06 22:55:00,47.1,25.8,30.25,SE,146,0.0,0.0,43,0.00,,,0.00,WeatherTracker,2013-03-07 04:55:00,
2013-03-06 23:00:00,46.7,26.0,30.25,SE,146,0.0,0.0,44,0.00,,,0.00,WeatherTracker,2013-03-07 05:00:00,
2013-03-06 23:05:00,47.3,24.8,30.25,SSE,147,0.0,0.0,41,0.00,,,0.00,WeatherTracker,2013-03-07 05:05:00,
2013-03-06 23:10:00,47.7,24.6,30.25,SE,146,0.0,2.0,40,0.00,,,0.00,WeatherTracker,2013-03-07 05:10:00,
2013-03-06 23:15:00,48.5,24.7,30.25,SSE,153,3.0,3.0,39,0.00,,,0.00,WeatherTracker,2013-03-07 05:15:00,
2013-03-06 23:20:00,49.0,24.5,30.25,SSE,157,0.0,4.0,38,0.00,,,0.00,WeatherTracker,2013-03-07 05:20:00,
2013-03-06 23:26:00,49.0,25.7,30.24,ESE,115,0.0,4.0,40,0.00,,,0.00,WeatherTracker,2013-03-07 05:26:00,
2013-03-06 23:31:00,48.8,25.0,30.24,SE,134,0.0,1.0,39,0.00,,,0.00,WeatherTracker,2013-03-07 05:31:00,
2013-03-06 23:36:00,48.6,25.4,30.24,SE,134,0.0,1.0,40,0.00,,,0.00,WeatherTracker,2013-03-07 05:36:00,
2013-03-06 23:41:00,48.4,25.8,30.24,WSW,249,0.0,1.0,41,0.00,,,0.00,WeatherTracker,2013-03-07 05:41:00,
2013-03-06 23:46:00,48.2,26.2,30.24,WSW,249,0.0,1.0,42,0.00,,,0.00,WeatherTracker,2013-03-07 05:46:00,
2013-03-06 23:51:00,48.0,27.1,30.24,WSW,250,0.0,0.0,44,0.00,,,0.00,WeatherTracker,2013-03-07 05:51:00,
2013-03-06 23:56:00,47.9,27.0,30.24,WSW,249,0.0,0.0,44,0.00,,,0.00,WeatherTracker,2013-03-07 05:56:00,